When you browse on this site, cookies collect data to enhance your experience and personalize the content and advertising you see.
Visit our Privacy Policy to learn more. By continuing to use the site, you agree to this use of cookies and data.
  • En España
  • Lista de países
  • Para 7 días
  • Temperatura del agua
  • Mapa Satelital
  • El tiempo en el mapa
  • Informadores
  • user-avatar
    Iniciar sesión

    Tiempo cada hora Grechishino

    Hoy, 17 Julio, Miércoles

    Tiempo Temperatura Precipitaciones Viento Presión Humedad
    00:00 +10°C° 0 mm 0 mps 736 mmHg 93%
    01:00 +10°C° 0 mm 0 mps 736 mmHg 93%
    02:00 +10°C° 0 mm 0 mps 736 mmHg 92%
    03:00 +11°C° 0 mm 1 mps 736 mmHg 92%
    04:00 +12°C° 0 mm 1 mps 736 mmHg 92%
    05:00 +12°C° 0 mm 2 mps 736 mmHg 91%
    06:00 +14°C° 0 mm 2 mps 736 mmHg 87%
    07:00 +15°C° 0 mm 1 mps 736 mmHg 82%
    08:00 +16°C° 0 mm 1 mps 736 mmHg 77%
    09:00 +18°C° 0.3 mm 1 mps 736 mmHg 74%
    10:00 +19°C° 0.3 mm 1 mps 736 mmHg 72%
    11:00 +20°C° 0.3 mm 1 mps 736 mmHg 70%
    12:00 +20°C° 0.1 mm 1 mps 735 mmHg 67%
    13:00 +21°C° 0.1 mm 1 mps 735 mmHg 64%
    14:00 +21°C° 0.1 mm 1 mps 735 mmHg 61%
    15:00 +21°C° 0.1 mm 1 mps 735 mmHg 64%
    16:00 +21°C° 0.1 mm 1 mps 735 mmHg 67%
    17:00 +20°C° 0.1 mm 1 mps 735 mmHg 70%
    18:00 +19°C° 0.3 mm 1 mps 735 mmHg 75%
    19:00 +18°C° 0.3 mm 1 mps 734 mmHg 80%
    20:00 +15°C° 0.3 mm 1 mps 734 mmHg 85%
    21:00 +15°C° 0.1 mm 1 mps 734 mmHg 85%
    22:00 +15°C° 0.1 mm 1 mps 734 mmHg 86%
    23:00 +14°C° 0.1 mm 0 mps 734 mmHg 86%

    Mañana, 18 Julio, Jueves

    Tiempo Temperatura Precipitaciones Viento Presión Humedad
    00:00 +15°C° 0.2 mm 1 mps 734 mmHg 88%
    01:00 +14°C° 0.2 mm 1 mps 734 mmHg 89%
    02:00 +14°C° 0.2 mm 1 mps 734 mmHg 91%
    03:00 +14°C° 0.2 mm 1 mps 734 mmHg 92%
    04:00 +14°C° 0.2 mm 1 mps 734 mmHg 93%
    05:00 +13°C° 0.2 mm 0 mps 733 mmHg 94%
    06:00 +14°C° 0.3 mm 1 mps 733 mmHg 93%
    07:00 +15°C° 0.3 mm 1 mps 734 mmHg 91%
    08:00 +16°C° 0.3 mm 1 mps 734 mmHg 89%
    09:00 +16°C° 0.7 mm 2 mps 734 mmHg 90%
    10:00 +16°C° 0.7 mm 3 mps 734 mmHg 91%
    11:00 +16°C° 0.7 mm 3 mps 734 mmHg 92%
    12:00 +15°C° 0.3 mm 4 mps 734 mmHg 91%
    13:00 +15°C° 0.3 mm 4 mps 734 mmHg 90%
    14:00 +15°C° 0.3 mm 4 mps 734 mmHg 89%
    15:00 +15°C° 0.2 mm 4 mps 734 mmHg 90%
    16:00 +16°C° 0.2 mm 3 mps 734 mmHg 90%
    17:00 +16°C° 0.2 mm 3 mps 734 mmHg 91%
    18:00 +16°C° 0.5 mm 3 mps 734 mmHg 93%
    19:00 +15°C° 0.5 mm 2 mps 734 mmHg 95%
    20:00 +14°C° 0.5 mm 2 mps 734 mmHg 97%
    21:00 +14°C° 0.2 mm 2 mps 734 mmHg 97%
    22:00 +13°C° 0.2 mm 3 mps 734 mmHg 97%
    23:00 +13°C° 0.2 mm 3 mps 734 mmHg 97%

    Pasado mañana, 19 Julio, Viernes

    Tiempo Temperatura Precipitaciones Viento Presión Humedad
    00:00 +13°C° 0.9 mm 3 mps 734 mmHg 97%
    01:00 +13°C° 0.9 mm 4 mps 734 mmHg 98%
    02:00 +13°C° 0.9 mm 4 mps 734 mmHg 98%
    03:00 +13°C° 0.3 mm 4 mps 735 mmHg 98%
    04:00 +14°C° 0.3 mm 4 mps 735 mmHg 97%
    05:00 +14°C° 0.3 mm 4 mps 735 mmHg 97%
    06:00 +14°C° 0.2 mm 5 mps 735 mmHg 96%
    07:00 +14°C° 0.2 mm 5 mps 735 mmHg 96%
    08:00 +14°C° 0.2 mm 6 mps 736 mmHg 95%
    09:00 +14°C° 0.2 mm 6 mps 736 mmHg 94%
    10:00 +14°C° 0.2 mm 6 mps 737 mmHg 93%
    11:00 +15°C° 0.2 mm 6 mps 737 mmHg 92%
    12:00 +15°C° 0.5 mm 6 mps 737 mmHg 89%
    13:00 +16°C° 0.5 mm 6 mps 737 mmHg 87%
    14:00 +17°C° 0.5 mm 6 mps 738 mmHg 85%
    15:00 +17°C° 0.3 mm 6 mps 738 mmHg 86%
    16:00 +16°C° 0.3 mm 6 mps 738 mmHg 86%
    17:00 +16°C° 0.3 mm 5 mps 738 mmHg 87%
    18:00 +15°C° 0 mm 4 mps 739 mmHg 88%
    19:00 +15°C° 0 mm 4 mps 739 mmHg 89%
    20:00 +14°C° 0 mm 3 mps 739 mmHg 90%
    21:00 +14°C° 0 mm 3 mps 739 mmHg 90%
    22:00 +14°C° 0 mm 3 mps 740 mmHg 91%
    23:00 +14°C° 0 mm 4 mps 740 mmHg 91%

    20 Julio, Sábado

    Tiempo Temperatura Precipitaciones Viento Presión Humedad
    00:00 +13°C° 0 mm 4 mps 740 mmHg 92%
    01:00 +13°C° 0 mm 4 mps 740 mmHg 93%
    02:00 +12°C° 0 mm 4 mps 740 mmHg 94%
    03:00 +12°C° 0 mm 4 mps 741 mmHg 94%
    04:00 +12°C° 0 mm 3 mps 741 mmHg 95%
    05:00 +12°C° 0 mm 3 mps 741 mmHg 95%
    06:00 +14°C° 0 mm 4 mps 741 mmHg 89%
    07:00 +15°C° 0 mm 4 mps 742 mmHg 84%
    08:00 +18°C° 0 mm 4 mps 742 mmHg 78%
    09:00 +17°C° 0.2 mm 5 mps 742 mmHg 77%
    10:00 +19°C° 0.2 mm 5 mps 742 mmHg 76%
    11:00 +20°C° 0.2 mm 5 mps 743 mmHg 75%
    12:00 +20°C° 0.7 mm 5 mps 743 mmHg 77%
    13:00 +20°C° 0.7 mm 5 mps 743 mmHg 78%
    14:00 +20°C° 0.7 mm 5 mps 743 mmHg 80%
    15:00 +20°C° 0.4 mm 4 mps 743 mmHg 81%
    16:00 +20°C° 0.4 mm 4 mps 743 mmHg 81%
    17:00 +20°C° 0.4 mm 4 mps 743 mmHg 81%
    18:00 +19°C° 0.1 mm 3 mps 744 mmHg 85%
    19:00 +18°C° 0.1 mm 2 mps 744 mmHg 89%
    20:00 +16°C° 0.1 mm 2 mps 744 mmHg 93%
    21:00 +16°C° 0 mm 2 mps 744 mmHg 94%
    22:00 +15°C° 0 mm 2 mps 744 mmHg 94%
    23:00 +14°C° 0 mm 2 mps 745 mmHg 95%

    21 Julio, Domingo

    Tiempo Temperatura Precipitaciones Viento Presión Humedad
    00:00 +14°C° 0 mm 2 mps 745 mmHg 95%
    01:00 +14°C° 0 mm 2 mps 745 mmHg 96%
    02:00 +13°C° 0 mm 2 mps 745 mmHg 96%
    03:00 +13°C° 0 mm 2 mps 745 mmHg 96%
    04:00 +13°C° 0 mm 2 mps 745 mmHg 97%
    05:00 +13°C° 0 mm 2 mps 745 mmHg 97%
    06:00 +15°C° 0 mm 2 mps 745 mmHg 93%
    07:00 +16°C° 0 mm 2 mps 745 mmHg 88%
    08:00 +18°C° 0 mm 2 mps 745 mmHg 84%
    09:00 +19°C° 0 mm 2 mps 746 mmHg 78%
    10:00 +20°C° 0 mm 2 mps 746 mmHg 71%
    11:00 +21°C° 0 mm 2 mps 746 mmHg 65%
    12:00 +22°C° 0 mm 3 mps 746 mmHg 65%
    13:00 +22°C° 0 mm 3 mps 745 mmHg 65%
    14:00 +22°C° 0 mm 4 mps 745 mmHg 65%
    15:00 +22°C° 0.1 mm 4 mps 745 mmHg 67%
    16:00 +22°C° 0.1 mm 3 mps 745 mmHg 70%
    17:00 +21°C° 0.1 mm 3 mps 745 mmHg 73%
    18:00 +20°C° 0 mm 2 mps 745 mmHg 78%
    19:00 +18°C° 0 mm 2 mps 745 mmHg 84%
    20:00 +18°C° 0 mm 1 mps 745 mmHg 89%
    21:00 +16°C° 0 mm 1 mps 745 mmHg 90%
    22:00 +15°C° 0 mm 1 mps 745 mmHg 91%
    23:00 +15°C° 0 mm 1 mps 745 mmHg 92%

    22 Julio, Lunes

    Tiempo Temperatura Precipitaciones Viento Presión Humedad
    00:00 +14°C° 0 mm 1 mps 745 mmHg 92%
    01:00 +14°C° 0 mm 1 mps 745 mmHg 92%
    02:00 +13°C° 0 mm 1 mps 745 mmHg 93%
    03:00 +13°C° 0 mm 1 mps 745 mmHg 93%
    04:00 +13°C° 0 mm 1 mps 745 mmHg 94%
    05:00 +13°C° 0 mm 1 mps 745 mmHg 94%
    06:00 +15°C° 0 mm 1 mps 745 mmHg 88%
    07:00 +18°C° 0 mm 1 mps 745 mmHg 83%
    08:00 +20°C° 0 mm 1 mps 746 mmHg 77%
    09:00 +21°C° 0 mm 1 mps 746 mmHg 70%
    10:00 +23°C° 0 mm 1 mps 746 mmHg 63%
    11:00 +24°C° 0 mm 1 mps 746 mmHg 57%
    12:00 +24°C° 0 mm 1 mps 745 mmHg 53%
    13:00 +25°C° 0 mm 1 mps 745 mmHg 50%
    14:00 +25°C° 0 mm 2 mps 745 mmHg 47%
    15:00 +25°C° 0 mm 2 mps 745 mmHg 50%
    16:00 +25°C° 0 mm 2 mps 745 mmHg 54%
    17:00 +25°C° 0 mm 2 mps 744 mmHg 58%
    18:00 +21°C° 0 mm 2 mps 744 mmHg 63%
    19:00 +19°C° 0 mm 2 mps 744 mmHg 69%
    20:00 +17°C° 0 mm 2 mps 745 mmHg 75%
    21:00 +16°C° 0 mm 2 mps 745 mmHg 76%
    22:00 +16°C° 0 mm 2 mps 745 mmHg 77%
    23:00 +15°C° 0 mm 2 mps 745 mmHg 78%
    Mostrar más